Location: Katzenstein
(51.7484°N, 10.2155°E)
Time: 05:40:02
(UTC+00:00)

Cosmos 2333 Rocket - Pass Details

Date: 17 February 2020
Orbit: 841 x 861 km, 70.8° (Epoch: 28 March)

Event Time Altitude Azimuth Distance (km) Brightness Sun altitude
Exits shadow 01:49:56 21° 44° (NE) 1,856 4.4 -41.8°
Drops below altitude 10° 01:51:45 10° 38° (NE) 2,497 5.3 -41.6°
Sets 01:54:15 0° 34° (NNE) 3,434 6.2 -41.3°
